Preview of NWS' New Version of Forecast
This preview is not operational and should not be used for support decisions.

Regional Weather Roundup (RWR)

Issued by National Weather Service (NWS)

                            
000
ASUS46 KSEW 210020
RWRWA 

WASHINGTON REGIONAL WEATHER ROUNDUP
NATIONAL WEATHER SERVICE SEATTLE WA
500 PM PDT FRI SEP 20 2019

NOTE:"FAIR" INDICATES FEW OR NO CLOUDS BELOW 12,000 FEET WITH NO 
SIGNIFICANT WEATHER AND/OR OBSTRUCTIONS TO VISIBILITY.

WAZ507-509-555>559-210100-
SEATTLE, TACOMA, EVERETT, AND VICINITY
  
CITY           SKY/WX    TMP DP  RH WIND       PRES   REMARKS
EVERETT        CLOUDY    66  53  63 N5        30.13S                  
6HR MIN TEMP:  59; 6HR MAX TEMP:  67;                                

BOEING FIELD   PTSUNNY   67  53  61 CALM      30.12S                  
6HR MIN TEMP:  62; 6HR MAX TEMP:  68;                                

RENTON         MOSUNNY   67  54  63 N3        30.11S                  
6HR MIN TEMP:  63; 6HR MAX TEMP:  68;                                

SEATAC AIRPORT PTSUNNY   67  52  58 SW3       30.12F                  
6HR MIN TEMP:  61; 6HR MAX TEMP:  69;                                

JBLM-MCCHORD   MOSUNNY   69  58  69 SW3       30.11F                  
6HR MIN TEMP:  59; 6HR MAX TEMP:  70;                                

PUYALLUP       FAIR      68  55  64 CALM      30.12S                  
BREMERTON      NOT AVBL                                               
JBLM-FT LEWIS  MOSUNNY   67  60  76 SW5       30.11S                  
6HR MIN TEMP:  60; 6HR MAX TEMP:  68;                                

TACOMA NARROWS PTSUNNY   64  53  67 VRB3      30.12S                  
6HR MIN TEMP:  57; 6HR MAX TEMP:  67;                                

$$
 
WAZ001-503-506-510-514-515-210100-
NORTH INTERIOR
  
CITY           SKY/WX    TMP DP  RH WIND       PRES   REMARKS
BELLINGHAM     MOSUNNY   65  52  62 S7        30.11S                  
6HR MIN TEMP:  60; 6HR MAX TEMP:  67;                                

FRIDAY HARBOR  MOSUNNY   66  52  60 S6        30.12F                  
6HR MIN TEMP:  57; 6HR MAX TEMP:  68;                                

EASTSOUND      MOSUNNY   63  55  77 NW3       30.10S                  
PORT ANGELES   CLOUDY    65  55  70 E3        30.12S                  
6HR MIN TEMP:  60; 6HR MAX TEMP:  65;                                

EDIZ HOOK      CLOUDY    61  56  85 E6        30.11F                  
6HR MIN TEMP:  60; 6HR MAX TEMP:  64;                                

PORT TOWNSEND  PTSUNNY   66  54  63 CALM      30.11S                  
NAS WHIDBEY    PTSUNNY   64  53  67 W7        30.15S                  
6HR MIN TEMP:  61; 6HR MAX TEMP:  68;                                

ARLINGTON      MOSUNNY   66  54  65 NW6       30.12S                  
6HR MIN TEMP:  59; 6HR MAX TEMP:  67;                                

BURLINGTON     SUNNY     72  54  53 S5        30.11S                  
$$
 
WAZ020-022-039-040-504-511-512-210100-
SOUTHWEST INTERIOR
  
CITY           SKY/WX    TMP DP  RH WIND       PRES   REMARKS
SHELTON        CLOUDY    69  55  60 SW8       30.08F                  
6HR MIN TEMP:  61; 6HR MAX TEMP:  70;                                

OLYMPIA        PTSUNNY   67  53  61 S5        30.11F                  
6HR MIN TEMP:  60; 6HR MAX TEMP:  69;                                

CHEHALIS       FAIR      70  57  64 CALM      30.12S                  
KELSO          PTSUNNY   67  56  67 CALM      30.13S                  
6HR MIN TEMP:  64; 6HR MAX TEMP:  68;                                

VANCOUVER      PTSUNNY   68  55  63 SE5       30.12S                  
6HR MIN TEMP:  63; 6HR MAX TEMP:  68; 6HR PCP: TRACE;                

SCAPPOOSE, OR  PTSUNNY   67  57  70 NE5       30.11F                  
6HR MIN TEMP:  61; 6HR MAX TEMP:  69; 6HR PCP: TRACE;                

PORTLAND, OR   PTSUNNY   68  55  63 VRB3      30.13S                  
6HR MIN TEMP:  62; 6HR MAX TEMP:  68; 6HR PCP: TRACE;                

$$
 
WAZ021-516-517-210100-
WASHINGTON COAST
  
CITY           SKY/WX    TMP DP  RH WIND       PRES   REMARKS
FORKS          CLOUDY    60  56  86 W5        30.12F                  
6HR MIN TEMP:  59; 6HR MAX TEMP:  62; 6HR PCP:  0.03;                

HOQUIAM        MOSUNNY   64  59  83 W13       30.13S                  
6HR MIN TEMP:  62; 6HR MAX TEMP:  65;                                

ASTORIA, OR    CLOUDY    64  58  80 W9        30.14R                  
6HR MIN TEMP:  62; 6HR MAX TEMP:  67;                                

$$
 
WAZ019-023-024-040-567>569-210100-
CASCADE MOUNTAINS AND COLUMBIA GORGE
  
CITY           SKY/WX    TMP DP  RH WIND       PRES   REMARKS
STAMPEDE PASS  PTSUNNY   50  46  86 VRB5      30.14S                  
6HR MIN TEMP:  47; 6HR MAX TEMP:  50;                                

TROUTDALE, OR  CLOUDY    67  54  63 CALM      30.13S                  
6HR MIN TEMP:  62; 6HR MAX TEMP:  67; 6HR PCP:  0.01;                

HOOD RIVER, OR CLEAR     68  50  52 CALM      30.08S                  
THE DALLES, OR SUNNY     73  48  41 W20G28    30.03R                  
6HR MIN TEMP:  68; 6HR MAX TEMP:  74;                                

$$

WAZ026-027-041>044-520-521-210100-
EAST SLOPES
  
CITY           SKY/WX    TMP DP  RH WIND       PRES   REMARKS
OMAK           MOSUNNY   74  40  29 N13       29.97S                  
6HR MIN TEMP:  69; 6HR MAX TEMP:  76;                                

WENATCHEE      SUNNY     72  44  36 NW20      29.97R                  
6HR MIN TEMP:  66; 6HR MAX TEMP:  74;                                

ELLENSBURG     SUNNY     68  44  42 NW24G37   30.02R                  
6HR MIN TEMP:  68; 6HR MAX TEMP:  74;                                

YAKIMA         MOSUNNY   76  45  33 NW16      29.99R                  
6HR MIN TEMP:  69; 6HR MAX TEMP:  77;                                

SUNNYSIDE ARPT PTCLDY    74  50  42 SE7       29.98F                  
6HR MIN TEMP:  66; 6HR MAX TEMP:  74;                                

YAKIMA TC      MOCLDY    72  40  31 NW15G23   29.98R                  
6HR MIN TEMP:  67; 6HR MAX TEMP:  74;                                

$$

WAZ028-034-035-210100-
COLUMBIA BASIN
  
CITY           SKY/WX    TMP DP  RH WIND       PRES   REMARKS
EPHRATA        PTSUNNY   75  42  30 W8        29.96S                  
6HR MIN TEMP:  68; 6HR MAX TEMP:  77; 6HR PCP: TRACE;                

MOSES LAKE     MOSUNNY   76  41  28 VRB5      29.97S                  
6HR MIN TEMP:  66; 6HR MAX TEMP:  78;                                

PASCO          SUNNY     75  47  36 S12       29.99F                  
6HR MIN TEMP:  66; 6HR MAX TEMP:  76; 6HR PCP: TRACE;                

RICHLAND ARPT  NOT AVBL                                               
HERMISTON, OR  SUNNY     74  46  36 VRB3      30.00S                  
6HR MIN TEMP:  60; 6HR MAX TEMP:  74;                                

$$

WAZ036>038-210100-
NORTHEAST WASHINGTON
  
CITY           SKY/WX    TMP DP  RH WIND       PRES   REMARKS
SPOKANE GEIGER LGT RAIN  63  47  55 SW12      30.00R                  
6HR MIN TEMP:  54; 6HR MAX TEMP:  66; 6HR PCP: TRACE;                

SPOKANE FELTS  CLOUDY    66  46  48 CALM      29.99S                  
6HR MIN TEMP:  56; 6HR MAX TEMP:  68;                                

FAIRCHILD AFB  LGT RAIN  58  58 100 S6        30.00S                  
6HR MIN TEMP:  54; 6HR MAX TEMP:  65; 6HR PCP:  0.06;                

COEURDALENE,ID CLOUDY    60  49  66 SE7       30.01S                  
6HR MIN TEMP:  54; 6HR MAX TEMP:  61;                                

DEER PARK      CLOUDY    63  50  62 MISG      29.99S                  
6HR MIN TEMP:  53; 6HR MAX TEMP:  65; 6HR PCP:  0.01;                

$$

WAZ029>033-210100-
SOUTHEAST WASHINGTON
  
CITY           SKY/WX    TMP DP  RH WIND       PRES   REMARKS
PULLMAN        CLOUDY    59  48  67 W13       30.05S                  
6HR MIN TEMP:  56; 6HR MAX TEMP:  62; 6HR PCP: TRACE;                

LEWISTON, ID   CLOUDY    65  47  52 W5        30.02S                  
6HR MIN TEMP:  58; 6HR MAX TEMP:  68;                                

WALLA WALLA    MOSUNNY   67  47  48 S7        30.03S                  
6HR MIN TEMP:  60; 6HR MAX TEMP:  69;                                

PENDLETON, OR  MOSUNNY   68  48  48 VRB5      30.03S                  
6HR MIN TEMP:  56; 6HR MAX TEMP:  68; 6HR PCP: TRACE;                

$$